• In Österreich
  • Länderverzeichnis
  • Für 7 Tage
  • Wassertemperatur
  • Satellitenkarten
  • Wetterkarte
  • News
  • Widgets
  • user-avatar
    Anmelden

    Stündliche Wetter Bindura

    Heute, 24 September, Montag

    Zeit Temperatur Niederschläge Wind Luftdruck Luftfeuchtigkeit
    00:00 +19°C° 0 mm 1 m/S 670 mmHg 55%
    01:00 +18°C° 0 mm 1 m/S 669 mmHg 60%
    02:00 +18°C° 0 mm 1 m/S 669 mmHg 64%
    03:00 +16°C° 0 mm 1 m/S 669 mmHg 65%
    04:00 +16°C° 0 mm 1 m/S 669 mmHg 67%
    05:00 +16°C° 0 mm 1 m/S 669 mmHg 68%
    06:00 +19°C° 0 mm 1 m/S 670 mmHg 62%
    07:00 +20°C° 0 mm 2 m/S 671 mmHg 55%
    08:00 +22°C° 0 mm 3 m/S 671 mmHg 49%
    09:00 +26°C° 0 mm 3 m/S 671 mmHg 42%
    10:00 +28°C° 0 mm 3 m/S 672 mmHg 35%
    11:00 +30°C° 0 mm 3 m/S 672 mmHg 28%
    12:00 +31°C° 0 mm 3 m/S 671 mmHg 26%
    13:00 +33°C° 0 mm 3 m/S 671 mmHg 23%
    14:00 +34°C° 0 mm 3 m/S 670 mmHg 20%
    15:00 +33°C° 0 mm 3 m/S 670 mmHg 21%
    16:00 +31°C° 0 mm 3 m/S 669 mmHg 23%
    17:00 +32°C° 0 mm 4 m/S 669 mmHg 24%
    18:00 +29°C° 0 mm 3 m/S 669 mmHg 28%
    19:00 +27°C° 0 mm 2 m/S 669 mmHg 33%
    20:00 +25°C° 0 mm 2 m/S 669 mmHg 38%
    21:00 +24°C° 0 mm 2 m/S 669 mmHg 41%
    22:00 +23°C° 0 mm 2 m/S 669 mmHg 43%
    23:00 +21°C° 0 mm 2 m/S 670 mmHg 46%

    Morgen, 25 September, Dienstag

    Zeit Temperatur Niederschläge Wind Luftdruck Luftfeuchtigkeit
    00:00 +21°C° 0 mm 1 m/S 669 mmHg 49%
    01:00 +21°C° 0 mm 1 m/S 669 mmHg 51%
    02:00 +20°C° 0 mm 1 m/S 669 mmHg 54%
    03:00 +20°C° 0 mm 1 m/S 669 mmHg 56%
    04:00 +19°C° 0 mm 1 m/S 669 mmHg 58%
    05:00 +19°C° 0 mm 1 m/S 669 mmHg 61%
    06:00 +20°C° 0 mm 2 m/S 670 mmHg 55%
    07:00 +22°C° 0 mm 3 m/S 671 mmHg 50%
    08:00 +25°C° 0 mm 3 m/S 671 mmHg 44%
    09:00 +27°C° 0 mm 4 m/S 672 mmHg 38%
    10:00 +29°C° 0 mm 4 m/S 672 mmHg 32%
    11:00 +33°C° 0 mm 4 m/S 672 mmHg 26%
    12:00 +33°C° 0 mm 4 m/S 671 mmHg 24%
    13:00 +34°C° 0 mm 4 m/S 670 mmHg 22%
    14:00 +35°C° 0 mm 3 m/S 670 mmHg 20%
    15:00 +34°C° 0 mm 3 m/S 669 mmHg 21%
    16:00 +33°C° 0 mm 3 m/S 669 mmHg 22%
    17:00 +33°C° 0 mm 3 m/S 668 mmHg 23%
    18:00 +30°C° 0 mm 3 m/S 668 mmHg 26%
    19:00 +28°C° 0 mm 2 m/S 668 mmHg 30%
    20:00 +26°C° 0 mm 2 m/S 669 mmHg 33%
    21:00 +25°C° 0 mm 2 m/S 669 mmHg 35%
    22:00 +24°C° 0 mm 2 m/S 669 mmHg 37%
    23:00 +23°C° 0 mm 1 m/S 669 mmHg 39%

    übermorgen, 26 September, Mittwoch

    Zeit Temperatur Niederschläge Wind Luftdruck Luftfeuchtigkeit
    00:00 +22°C° 0 mm 1 m/S 668 mmHg 41%
    01:00 +22°C° 0 mm 1 m/S 668 mmHg 43%
    02:00 +21°C° 0 mm 1 m/S 668 mmHg 45%
    03:00 +21°C° 0 mm 1 m/S 668 mmHg 47%
    04:00 +21°C° 0 mm 1 m/S 668 mmHg 49%
    05:00 +20°C° 0 mm 1 m/S 668 mmHg 51%
    06:00 +23°C° 0 mm 2 m/S 669 mmHg 46%
    07:00 +25°C° 0 mm 2 m/S 670 mmHg 41%
    08:00 +27°C° 0 mm 3 m/S 671 mmHg 35%
    09:00 +30°C° 0 mm 3 m/S 671 mmHg 31%
    10:00 +33°C° 0 mm 3 m/S 671 mmHg 27%
    11:00 +35°C° 0 mm 4 m/S 671 mmHg 23%
    12:00 +35°C° 0 mm 3 m/S 670 mmHg 21%
    13:00 +36°C° 0 mm 3 m/S 670 mmHg 19%
    14:00 +37°C° 0 mm 3 m/S 669 mmHg 18%
    15:00 +36°C° 0 mm 3 m/S 669 mmHg 19%
    16:00 +35°C° 0 mm 3 m/S 668 mmHg 20%
    17:00 +34°C° 0 mm 3 m/S 668 mmHg 21%
    18:00 +31°C° 0 mm 3 m/S 668 mmHg 24%
    19:00 +29°C° 0 mm 2 m/S 668 mmHg 27%
    20:00 +27°C° 0 mm 2 m/S 668 mmHg 30%
    21:00 +27°C° 0 mm 1 m/S 669 mmHg 32%
    22:00 +26°C° 0 mm 1 m/S 669 mmHg 33%
    23:00 +25°C° 0 mm 1 m/S 669 mmHg 34%

    27 September, Donnerstag

    Zeit Temperatur Niederschläge Wind Luftdruck Luftfeuchtigkeit
    00:00 +24°C° 0 mm 1 m/S 668 mmHg 36%
    01:00 +24°C° 0 mm 1 m/S 668 mmHg 37%
    02:00 +23°C° 0 mm 1 m/S 668 mmHg 39%
    03:00 +23°C° 0 mm 1 m/S 668 mmHg 40%
    04:00 +22°C° 0 mm 1 m/S 668 mmHg 42%
    05:00 +22°C° 0 mm 1 m/S 668 mmHg 44%
    06:00 +24°C° 0 mm 1 m/S 669 mmHg 40%
    07:00 +26°C° 0 mm 2 m/S 670 mmHg 36%
    08:00 +29°C° 0 mm 2 m/S 671 mmHg 32%
    09:00 +31°C° 0 mm 3 m/S 671 mmHg 28%
    10:00 +33°C° 0 mm 3 m/S 671 mmHg 25%
    11:00 +35°C° 0 mm 4 m/S 671 mmHg 22%
    12:00 +36°C° 0 mm 4 m/S 670 mmHg 21%
    13:00 +36°C° 0 mm 4 m/S 670 mmHg 20%
    14:00 +36°C° 0 mm 4 m/S 669 mmHg 20%
    15:00 +35°C° 0 mm 4 m/S 669 mmHg 21%
    16:00 +35°C° 0 mm 4 m/S 668 mmHg 22%
    17:00 +34°C° 0 mm 4 m/S 668 mmHg 24%
    18:00 +32°C° 0 mm 4 m/S 668 mmHg 27%
    19:00 +29°C° 0 mm 3 m/S 669 mmHg 30%
    20:00 +28°C° 0 mm 3 m/S 669 mmHg 33%
    21:00 +27°C° 0 mm 2 m/S 669 mmHg 35%
    22:00 +26°C° 0 mm 2 m/S 669 mmHg 37%
    23:00 +25°C° 0 mm 2 m/S 669 mmHg 39%

    28 September, Freitag

    Zeit Temperatur Niederschläge Wind Luftdruck Luftfeuchtigkeit
    00:00 +24°C° 0 mm 2 m/S 668 mmHg 41%
    01:00 +23°C° 0 mm 2 m/S 668 mmHg 43%
    02:00 +23°C° 0 mm 1 m/S 667 mmHg 45%
    03:00 +22°C° 0 mm 1 m/S 668 mmHg 47%
    04:00 +21°C° 0 mm 1 m/S 668 mmHg 49%
    05:00 +21°C° 0 mm 1 m/S 668 mmHg 50%
    06:00 +23°C° 0 mm 2 m/S 669 mmHg 44%
    07:00 +25°C° 0 mm 3 m/S 670 mmHg 38%
    08:00 +27°C° 0 mm 3 m/S 671 mmHg 32%
    09:00 +29°C° 0 mm 3 m/S 671 mmHg 28%
    10:00 +31°C° 0 mm 3 m/S 671 mmHg 25%
    11:00 +34°C° 0 mm 3 m/S 671 mmHg 21%
    12:00 +35°C° 0 mm 3 m/S 670 mmHg 20%
    13:00 +36°C° 0 mm 3 m/S 669 mmHg 18%
    14:00 +36°C° 0 mm 3 m/S 669 mmHg 17%
    15:00 +35°C° 0 mm 3 m/S 668 mmHg 19%
    16:00 +34°C° 0 mm 3 m/S 668 mmHg 21%
    17:00 +34°C° 0 mm 4 m/S 668 mmHg 23%
    18:00 +31°C° 0 mm 3 m/S 668 mmHg 27%
    19:00 +29°C° 0 mm 3 m/S 668 mmHg 31%
    20:00 +27°C° 0 mm 2 m/S 668 mmHg 35%
    21:00 +26°C° 0 mm 2 m/S 668 mmHg 37%
    22:00 +25°C° 0 mm 2 m/S 668 mmHg 39%
    23:00 +24°C° 0 mm 2 m/S 668 mmHg 40%

    29 September, Samstag

    Zeit Temperatur Niederschläge Wind Luftdruck Luftfeuchtigkeit
    00:00 +24°C° 0 mm 2 m/S 668 mmHg 43%
    01:00 +23°C° 0 mm 2 m/S 668 mmHg 45%
    02:00 +22°C° 0 mm 1 m/S 667 mmHg 47%
    03:00 +22°C° 0 mm 1 m/S 668 mmHg 50%
    04:00 +21°C° 0 mm 1 m/S 668 mmHg 52%
    05:00 +21°C° 0 mm 1 m/S 668 mmHg 54%
    06:00 +23°C° 0 mm 2 m/S 669 mmHg 47%
    07:00 +25°C° 0 mm 3 m/S 670 mmHg 39%
    08:00 +27°C° 0 mm 4 m/S 671 mmHg 32%
    09:00 +29°C° 0 mm 4 m/S 672 mmHg 29%
    10:00 +32°C° 0 mm 4 m/S 672 mmHg 25%
    11:00 +34°C° 0 mm 4 m/S 672 mmHg 21%
    12:00 +34°C° 0 mm 5 m/S 672 mmHg 21%
    13:00 +33°C° 0 mm 5 m/S 671 mmHg 22%
    14:00 +33°C° 0 mm 5 m/S 671 mmHg 22%
    15:00 +32°C° 0 mm 5 m/S 671 mmHg 24%
    16:00 +30°C° 0 mm 4 m/S 671 mmHg 26%
    17:00 +29°C° 0 mm 4 m/S 671 mmHg 28%
    18:00 +28°C° 0.1 mm 4 m/S 671 mmHg 35%
    19:00 +27°C° 0.1 mm 5 m/S 672 mmHg 42%
    20:00 +25°C° 0.1 mm 5 m/S 672 mmHg 49%
    21:00 +23°C° 0 mm 4 m/S 672 mmHg 52%
    22:00 +22°C° 0 mm 4 m/S 672 mmHg 56%
    23:00 +22°C° 0 mm 3 m/S 672 mmHg 59%
    Mehr zeigen